Year,Month,Day,Hour,Minute,Value (Times are PST for temperature in C)
2008,03,23,00,00,6.50
2008,03,23,00,01,6.40
2008,03,23,00,02,6.40
2008,03,23,00,03,6.50
2008,03,23,00,04,6.50
2008,03,23,00,05,6.50
2008,03,23,00,06,6.50
2008,03,23,00,07,6.50
2008,03,23,00,08,6.60
2008,03,23,00,09,6.60
2008,03,23,00,10,6.60
2008,03,23,00,11,6.70
2008,03,23,00,12,6.70
2008,03,23,00,13,6.70
2008,03,23,00,14,6.80
2008,03,23,00,15,6.80
2008,03,23,00,16,6.80
2008,03,23,00,17,6.80
2008,03,23,00,18,6.80
2008,03,23,00,19,6.80
2008,03,23,00,20,6.80
2008,03,23,00,21,6.80
2008,03,23,00,22,6.80
2008,03,23,00,23,6.80
2008,03,23,00,24,6.80
2008,03,23,00,25,6.80
2008,03,23,00,26,6.80
2008,03,23,00,27,6.80
2008,03,23,00,28,6.70
2008,03,23,00,29,6.70
2008,03,23,00,30,6.70
2008,03,23,00,31,6.70
2008,03,23,00,32,6.60
2008,03,23,00,33,6.60
2008,03,23,00,34,6.60
2008,03,23,00,35,6.60
2008,03,23,00,36,6.60
2008,03,23,00,37,6.60
2008,03,23,00,38,6.60
2008,03,23,00,39,6.50
2008,03,23,00,40,6.50
2008,03,23,00,41,6.50
2008,03,23,00,42,6.40
2008,03,23,00,43,6.40
2008,03,23,00,44,6.30
2008,03,23,00,45,6.30
2008,03,23,00,46,6.30
2008,03,23,00,47,6.30
2008,03,23,00,48,6.30
2008,03,23,00,49,6.30
2008,03,23,00,50,6.20
2008,03,23,00,51,6.20
2008,03,23,00,52,6.20
2008,03,23,00,53,6.20
2008,03,23,00,54,6.20
2008,03,23,00,55,6.20
2008,03,23,00,56,6.20
2008,03,23,00,57,6.20
2008,03,23,00,58,6.20
2008,03,23,00,59,6.10
2008,03,23,01,00,6.10
2008,03,23,01,01,6.10
2008,03,23,01,02,6.00
2008,03,23,01,03,6.00
2008,03,23,01,04,6.00
2008,03,23,01,05,5.90
2008,03,23,01,06,5.90
2008,03,23,01,07,5.90
2008,03,23,01,08,6.00
2008,03,23,01,09,6.00
2008,03,23,01,10,6.00
2008,03,23,01,11,6.00
2008,03,23,01,12,6.10
2008,03,23,01,13,6.20
2008,03,23,01,14,6.20
2008,03,23,01,15,6.20
2008,03,23,01,16,6.10
2008,03,23,01,17,6.10
2008,03,23,01,18,6.00
2008,03,23,01,19,5.90
2008,03,23,01,20,5.90
2008,03,23,01,21,5.80
2008,03,23,01,22,5.80
2008,03,23,01,23,5.80
2008,03,23,01,24,5.80
2008,03,23,01,25,5.80
2008,03,23,01,26,5.80
2008,03,23,01,27,5.80
2008,03,23,01,28,5.70
2008,03,23,01,29,5.70
2008,03,23,01,30,5.80
2008,03,23,01,31,5.80
2008,03,23,01,32,5.90
2008,03,23,01,33,6.20
2008,03,23,01,34,6.60
2008,03,23,01,35,7.00
2008,03,23,01,36,7.30
2008,03,23,01,37,7.50
2008,03,23,01,38,7.60
2008,03,23,01,39,7.80
2008,03,23,01,40,7.90
2008,03,23,01,41,7.90
2008,03,23,01,42,8.00
2008,03,23,01,43,8.00
2008,03,23,01,44,8.00
2008,03,23,01,45,7.90
2008,03,23,01,46,7.90
2008,03,23,01,47,7.80
2008,03,23,01,48,7.80
2008,03,23,01,49,7.80
2008,03,23,01,50,7.70
2008,03,23,01,51,7.70
2008,03,23,01,52,7.70
2008,03,23,01,53,7.60
2008,03,23,01,54,7.60
2008,03,23,01,55,7.50
2008,03,23,01,56,7.50
2008,03,23,01,57,7.40
2008,03,23,01,58,7.40
2008,03,23,01,59,7.40
2008,03,23,02,00,7.30
2008,03,23,02,01,7.20
2008,03,23,02,02,7.20
2008,03,23,02,03,7.20
2008,03,23,02,04,7.10
2008,03,23,02,05,7.10
2008,03,23,02,06,7.00
2008,03,23,02,07,7.00
2008,03,23,02,08,6.90
2008,03,23,02,09,6.90
2008,03,23,02,10,6.80
2008,03,23,02,11,6.80
2008,03,23,02,12,6.80
2008,03,23,02,13,6.70
2008,03,23,02,14,6.70
2008,03,23,02,15,6.70
2008,03,23,02,16,6.70
2008,03,23,02,17,6.60
2008,03,23,02,18,6.60
2008,03,23,02,19,6.60
2008,03,23,02,20,6.60
2008,03,23,02,21,6.60
2008,03,23,02,22,6.50
2008,03,23,02,23,6.60
2008,03,23,02,24,6.60
2008,03,23,02,25,6.60
2008,03,23,02,26,6.60
2008,03,23,02,27,6.60
2008,03,23,02,28,6.50
2008,03,23,02,29,6.50
2008,03,23,02,30,6.50
2008,03,23,02,31,6.40
2008,03,23,02,32,6.40
2008,03,23,02,33,6.40
2008,03,23,02,34,6.40
2008,03,23,02,35,6.30
2008,03,23,02,36,6.30
2008,03,23,02,37,6.30
2008,03,23,02,38,6.20
2008,03,23,02,39,6.20
2008,03,23,02,40,6.20
2008,03,23,02,41,6.20
2008,03,23,02,42,6.10
2008,03,23,02,43,6.10
2008,03,23,02,44,6.10
2008,03,23,02,45,6.10
2008,03,23,02,46,6.00
2008,03,23,02,47,6.00
2008,03,23,02,48,5.90
2008,03,23,02,49,5.90
2008,03,23,02,50,5.90
2008,03,23,02,51,5.80
2008,03,23,02,52,5.80
2008,03,23,02,53,5.80
2008,03,23,02,54,5.80
2008,03,23,02,55,5.70
2008,03,23,02,56,5.70
2008,03,23,02,57,5.70
2008,03,23,02,58,5.70
2008,03,23,02,59,5.70
2008,03,23,03,00,5.70
2008,03,23,03,01,5.60
2008,03,23,03,02,5.60
2008,03,23,03,03,5.60
2008,03,23,03,04,5.60
2008,03,23,03,05,5.50
2008,03,23,03,06,5.50
2008,03,23,03,07,5.50
2008,03,23,03,08,5.50
2008,03,23,03,09,5.40
2008,03,23,03,10,5.40
2008,03,23,03,11,5.40
2008,03,23,03,12,5.40
2008,03,23,03,13,5.30
2008,03,23,03,14,5.30
2008,03,23,03,15,5.30
2008,03,23,03,16,5.40
2008,03,23,03,17,5.30
2008,03,23,03,18,5.30
2008,03,23,03,19,5.30
2008,03,23,03,20,5.30
2008,03,23,03,21,5.30
2008,03,23,03,22,5.20
2008,03,23,03,23,5.20
2008,03,23,03,24,5.20
2008,03,23,03,25,5.20
2008,03,23,03,26,5.10
2008,03,23,03,27,5.10
2008,03,23,03,28,5.10
2008,03,23,03,29,5.10
2008,03,23,03,30,5.10
2008,03,23,03,31,5.10
2008,03,23,03,32,5.10
2008,03,23,03,33,5.10
2008,03,23,03,34,5.10
2008,03,23,03,35,5.10
2008,03,23,03,36,5.10
2008,03,23,03,37,5.10
2008,03,23,03,38,5.10
2008,03,23,03,39,5.10
2008,03,23,03,40,5.10
2008,03,23,03,41,5.10
2008,03,23,03,42,5.10
2008,03,23,03,43,5.10
2008,03,23,03,44,5.10
2008,03,23,03,45,5.00
2008,03,23,03,46,5.00
2008,03,23,03,47,5.00
2008,03,23,03,48,5.10
2008,03,23,03,49,5.10
2008,03,23,03,50,5.10
2008,03,23,03,51,5.10
2008,03,23,03,52,5.10
2008,03,23,03,53,5.10
2008,03,23,03,54,5.10
2008,03,23,03,55,5.10
2008,03,23,03,56,5.10
2008,03,23,03,57,5.10
2008,03,23,03,58,5.10
2008,03,23,03,59,5.10
2008,03,23,04,00,5.10
2008,03,23,04,01,5.10
2008,03,23,04,02,5.10
2008,03,23,04,03,5.10
2008,03,23,04,04,5.20
2008,03,23,04,05,5.20
2008,03,23,04,06,5.30
2008,03,23,04,07,5.30
2008,03,23,04,08,5.30
2008,03,23,04,09,5.30
2008,03,23,04,10,5.30
2008,03,23,04,11,5.30
2008,03,23,04,12,5.30
2008,03,23,04,13,5.30
2008,03,23,04,14,5.30
2008,03,23,04,15,5.30
2008,03,23,04,16,5.30
2008,03,23,04,17,5.40
2008,03,23,04,18,5.40
2008,03,23,04,19,5.40
2008,03,23,04,20,5.40
2008,03,23,04,21,5.40
2008,03,23,04,22,5.50
2008,03,23,04,23,5.40
2008,03,23,04,24,5.40
2008,03,23,04,25,5.40
2008,03,23,04,26,5.40
2008,03,23,04,27,5.40
2008,03,23,04,28,5.40
2008,03,23,04,29,5.40
2008,03,23,04,30,5.40
2008,03,23,04,31,5.40
2008,03,23,04,32,5.40
2008,03,23,04,33,5.40
2008,03,23,04,34,5.40
2008,03,23,04,35,5.30
2008,03,23,04,36,5.30
2008,03,23,04,37,5.30
2008,03,23,04,38,5.20
2008,03,23,04,39,5.20
2008,03,23,04,40,5.20
2008,03,23,04,41,5.20
2008,03,23,04,42,5.20
2008,03,23,04,43,5.20
2008,03,23,04,44,5.20
2008,03,23,04,45,5.20
2008,03,23,04,46,5.20
2008,03,23,04,47,5.20
2008,03,23,04,48,5.20
2008,03,23,04,49,5.20
2008,03,23,04,50,5.20
2008,03,23,04,51,5.20
2008,03,23,04,52,5.20
2008,03,23,04,53,5.20
2008,03,23,04,54,5.20
2008,03,23,04,55,5.20
2008,03,23,04,56,5.20
2008,03,23,04,57,5.20
2008,03,23,04,58,5.20
2008,03,23,04,59,5.20
2008,03,23,05,00,5.20
2008,03,23,05,01,5.20
2008,03,23,05,02,5.20
2008,03,23,05,03,5.40
2008,03,23,05,04,5.50
2008,03,23,05,05,5.60
2008,03,23,05,06,5.50
2008,03,23,05,07,5.50
2008,03,23,05,08,5.40
2008,03,23,05,09,5.40
2008,03,23,05,10,5.30
2008,03,23,05,11,5.30
2008,03,23,05,12,5.30
2008,03,23,05,13,5.20
2008,03,23,05,14,5.20
2008,03,23,05,15,5.20
2008,03,23,05,16,5.20
2008,03,23,05,17,5.20
2008,03,23,05,18,5.30
2008,03,23,05,19,5.30
2008,03,23,05,20,5.30
2008,03,23,05,21,5.30
2008,03,23,05,22,5.30
2008,03,23,05,23,5.30
2008,03,23,05,24,5.30
2008,03,23,05,25,5.30
2008,03,23,05,26,5.30
2008,03,23,05,27,5.30
2008,03,23,05,28,5.30
2008,03,23,05,29,5.30
2008,03,23,05,30,5.30
2008,03,23,05,31,5.20
2008,03,23,05,32,5.20
2008,03,23,05,33,5.20
2008,03,23,05,34,5.20
2008,03,23,05,35,5.20
2008,03,23,05,36,5.20
2008,03,23,05,37,5.10
2008,03,23,05,38,5.10
2008,03,23,05,39,5.10
2008,03,23,05,40,5.10
2008,03,23,05,41,5.10
2008,03,23,05,42,5.10
2008,03,23,05,43,5.10
2008,03,23,05,44,5.10
2008,03,23,05,45,5.10
2008,03,23,05,46,5.10
2008,03,23,05,47,5.10
2008,03,23,05,48,5.10
2008,03,23,05,49,5.20
2008,03,23,05,50,5.20
2008,03,23,05,51,5.20
2008,03,23,05,52,5.20
2008,03,23,05,53,5.20
2008,03,23,05,54,5.10
2008,03,23,05,55,5.10
2008,03,23,05,56,5.10
2008,03,23,05,57,5.10
2008,03,23,05,58,5.10
2008,03,23,05,59,5.10
2008,03,23,06,00,5.10
2008,03,23,06,01,5.10
2008,03,23,06,02,5.10
2008,03,23,06,03,5.10
2008,03,23,06,04,5.10
2008,03,23,06,05,5.10
2008,03,23,06,06,5.10
2008,03,23,06,07,5.10
2008,03,23,06,08,5.10
2008,03,23,06,09,5.10
2008,03,23,06,10,5.10
2008,03,23,06,11,5.10
2008,03,23,06,12,5.10
2008,03,23,06,13,5.00
2008,03,23,06,14,5.00
2008,03,23,06,15,5.00
2008,03,23,06,16,5.00
2008,03,23,06,17,5.00
2008,03,23,06,18,4.90
2008,03,23,06,19,4.90
2008,03,23,06,20,4.90
2008,03,23,06,21,4.90
2008,03,23,06,22,4.90
2008,03,23,06,23,4.90
2008,03,23,06,24,4.90
2008,03,23,06,25,4.90
2008,03,23,06,26,4.90
2008,03,23,06,27,4.90
2008,03,23,06,28,4.90
2008,03,23,06,29,4.90
2008,03,23,06,30,4.90
2008,03,23,06,31,4.90
2008,03,23,06,32,4.90
2008,03,23,06,33,5.00
2008,03,23,06,34,5.00
2008,03,23,06,35,5.00
2008,03,23,06,36,5.00
2008,03,23,06,37,5.00
2008,03,23,06,38,5.00
2008,03,23,06,39,5.00
2008,03,23,06,40,4.90
2008,03,23,06,41,4.90
2008,03,23,06,42,4.90
2008,03,23,06,43,4.90
2008,03,23,06,44,4.90
2008,03,23,06,45,4.90
2008,03,23,06,46,4.90
2008,03,23,06,47,4.90
2008,03,23,06,48,4.90
2008,03,23,06,49,4.90
2008,03,23,06,50,4.90
2008,03,23,06,51,4.90
2008,03,23,06,52,4.90
2008,03,23,06,53,4.90
2008,03,23,06,54,4.90
2008,03,23,06,55,4.90
2008,03,23,06,56,4.80
2008,03,23,06,57,4.80
2008,03,23,06,58,4.80
2008,03,23,06,59,4.80
2008,03,23,07,00,4.90
2008,03,23,07,01,4.90
2008,03,23,07,02,4.90
2008,03,23,07,03,4.90
2008,03,23,07,04,4.90
2008,03,23,07,05,4.80
2008,03,23,07,06,4.80
2008,03,23,07,07,4.80
2008,03,23,07,08,4.80
2008,03,23,07,09,4.70
2008,03,23,07,10,4.70
2008,03,23,07,11,4.70
2008,03,23,07,12,4.70
2008,03,23,07,13,4.70
2008,03,23,07,14,4.70
2008,03,23,07,15,4.60
2008,03,23,07,16,4.60
2008,03,23,07,17,4.60
2008,03,23,07,18,4.50
2008,03,23,07,19,4.50
2008,03,23,07,20,4.40
2008,03,23,07,21,4.40
2008,03,23,07,22,4.40
2008,03,23,07,23,4.30
2008,03,23,07,24,4.30
2008,03,23,07,25,4.30
2008,03,23,07,26,4.30
2008,03,23,07,27,4.30
2008,03,23,07,28,4.30
2008,03,23,07,29,4.30
2008,03,23,07,30,4.30
2008,03,23,07,31,4.30
2008,03,23,07,32,4.30
2008,03,23,07,33,4.30
2008,03,23,07,34,4.30
2008,03,23,07,35,4.30
2008,03,23,07,36,4.30
2008,03,23,07,37,4.30
2008,03,23,07,38,4.30
2008,03,23,07,39,4.20
2008,03,23,07,40,4.20
2008,03,23,07,41,4.20
2008,03,23,07,42,4.20
2008,03,23,07,43,4.20
2008,03,23,07,44,4.20
2008,03,23,07,45,4.20
2008,03,23,07,46,4.20
2008,03,23,07,47,4.20
2008,03,23,07,48,4.10
2008,03,23,07,49,4.10
2008,03,23,07,50,4.10
2008,03,23,07,51,4.10
2008,03,23,07,52,4.10
2008,03,23,07,53,4.10
2008,03,23,07,54,4.10
2008,03,23,07,55,4.10
2008,03,23,07,56,4.10
2008,03,23,07,57,4.10
2008,03,23,07,58,4.10
2008,03,23,07,59,4.10
2008,03,23,08,00,4.10
2008,03,23,08,01,4.10
2008,03,23,08,02,4.10
2008,03,23,08,03,4.10
2008,03,23,08,04,4.10
2008,03,23,08,05,4.10
2008,03,23,08,06,4.10
2008,03,23,08,07,4.10
2008,03,23,08,08,4.10
2008,03,23,08,09,4.10
2008,03,23,08,10,4.00
2008,03,23,08,11,4.00
2008,03,23,08,12,4.00
2008,03,23,08,13,4.00
2008,03,23,08,14,4.00
2008,03,23,08,15,4.10
2008,03,23,08,16,4.10
2008,03,23,08,17,4.20
2008,03,23,08,18,4.20
2008,03,23,08,19,4.30
2008,03,23,08,20,4.30
2008,03,23,08,21,4.30
2008,03,23,08,22,4.30
2008,03,23,08,23,4.30
2008,03,23,08,24,4.30
2008,03,23,08,25,4.30
2008,03,23,08,26,4.30
2008,03,23,08,27,4.20
2008,03,23,08,28,4.20
2008,03,23,08,29,4.20
2008,03,23,08,30,4.20
2008,03,23,08,31,4.20
2008,03,23,08,32,4.10
2008,03,23,08,33,4.10
2008,03,23,08,34,4.10
2008,03,23,08,35,4.10
2008,03,23,08,36,4.10
2008,03,23,08,37,4.10
2008,03,23,08,38,4.10
2008,03,23,08,39,4.10
2008,03,23,08,40,4.10
2008,03,23,08,41,4.20
2008,03,23,08,42,4.20
2008,03,23,08,43,4.20
2008,03,23,08,44,4.20
2008,03,23,08,45,4.30
2008,03,23,08,46,4.30
2008,03,23,08,47,4.30
2008,03,23,08,48,4.30
2008,03,23,08,49,4.30
2008,03,23,08,50,4.30
2008,03,23,08,51,4.30
2008,03,23,08,52,4.40
2008,03,23,08,53,4.40
2008,03,23,08,54,4.50
2008,03,23,08,55,4.50
2008,03,23,08,56,4.50
2008,03,23,08,57,4.40
2008,03,23,08,58,4.40
2008,03,23,08,59,4.40
2008,03,23,09,00,4.40
2008,03,23,09,01,4.40
2008,03,23,09,02,4.40
2008,03,23,09,03,4.40
2008,03,23,09,04,4.40
2008,03,23,09,05,4.40
2008,03,23,09,06,4.40
2008,03,23,09,07,4.40
2008,03,23,09,08,4.50
2008,03,23,09,09,4.50
2008,03,23,09,10,4.50
2008,03,23,09,11,4.60
2008,03,23,09,12,4.60
2008,03,23,09,13,4.60
2008,03,23,09,14,4.60
2008,03,23,09,15,4.70
2008,03,23,09,16,4.70
2008,03,23,09,17,4.70
2008,03,23,09,18,4.70
2008,03,23,09,19,4.70
2008,03,23,09,20,4.80
2008,03,23,09,21,4.80
2008,03,23,09,22,4.80
2008,03,23,09,23,4.80
2008,03,23,09,24,4.80
2008,03,23,09,25,4.70
2008,03,23,09,26,4.70
2008,03,23,09,27,4.70
2008,03,23,09,28,4.70
2008,03,23,09,29,4.70
2008,03,23,09,30,4.70
2008,03,23,09,31,4.70
2008,03,23,09,32,4.70
2008,03,23,09,33,4.70
2008,03,23,09,34,4.70
2008,03,23,09,35,4.70
2008,03,23,09,36,4.60
2008,03,23,09,37,4.60
2008,03,23,09,38,4.70
2008,03,23,09,39,4.70
2008,03,23,09,40,4.70
2008,03,23,09,41,4.70
2008,03,23,09,42,4.70
2008,03,23,09,43,4.70
2008,03,23,09,44,4.70
2008,03,23,09,45,4.70
2008,03,23,09,46,4.70
2008,03,23,09,47,4.70
2008,03,23,09,48,4.70
2008,03,23,09,49,4.80
2008,03,23,09,50,4.80
2008,03,23,09,51,4.90
2008,03,23,09,52,5.00
2008,03,23,09,53,5.10
2008,03,23,09,54,5.10
2008,03,23,09,55,5.20
2008,03,23,09,56,5.20
2008,03,23,09,57,5.30
2008,03,23,09,58,5.30
2008,03,23,09,59,5.40
2008,03,23,10,00,5.40
2008,03,23,10,01,5.50
2008,03,23,10,02,5.50
2008,03,23,10,03,5.60
2008,03,23,10,04,5.70
2008,03,23,10,05,5.70
2008,03,23,10,06,5.70
2008,03,23,10,07,5.70
2008,03,23,10,08,5.80
2008,03,23,10,09,5.80
2008,03,23,10,10,5.80
2008,03,23,10,11,5.80
2008,03,23,10,12,5.90
2008,03,23,10,13,5.90
2008,03,23,10,14,5.90
2008,03,23,10,15,6.00
2008,03,23,10,16,6.10
2008,03,23,10,17,6.20
2008,03,23,10,18,6.30
2008,03,23,10,19,6.30
2008,03,23,10,20,6.40
2008,03,23,10,21,6.30
2008,03,23,10,22,6.30
2008,03,23,10,23,6.30
2008,03,23,10,24,6.30
2008,03,23,10,25,6.30
2008,03,23,10,26,6.20
2008,03,23,10,27,6.20
2008,03,23,10,28,6.20
2008,03,23,10,29,6.30
2008,03,23,10,30,6.30
2008,03,23,10,31,6.30
2008,03,23,10,32,6.40
2008,03,23,10,33,6.40
2008,03,23,10,34,6.50
2008,03,23,10,35,6.60
2008,03,23,10,36,6.70
2008,03,23,10,37,6.80
2008,03,23,10,38,6.80
2008,03,23,10,39,6.90
2008,03,23,10,40,7.00
2008,03,23,10,41,7.00
2008,03,23,10,42,7.10
2008,03,23,10,43,7.10
2008,03,23,10,44,7.20
2008,03,23,10,45,7.20
2008,03,23,10,46,7.30
2008,03,23,10,47,7.40
2008,03,23,10,48,7.50
2008,03,23,10,49,7.60
2008,03,23,10,50,7.60
2008,03,23,10,51,7.70
2008,03,23,10,52,7.70
2008,03,23,10,53,7.60
2008,03,23,10,54,7.60
2008,03,23,10,55,7.50
2008,03,23,10,56,7.40
2008,03,23,10,57,7.40
2008,03,23,10,58,7.40
2008,03,23,10,59,7.40
2008,03,23,11,00,7.30
2008,03,23,11,01,7.30
2008,03,23,11,02,7.30
2008,03,23,11,03,7.30
2008,03,23,11,04,7.30
2008,03,23,11,05,7.30
2008,03,23,11,06,7.30
2008,03,23,11,07,7.30
2008,03,23,11,08,7.30
2008,03,23,11,09,7.20
2008,03,23,11,10,7.20
2008,03,23,11,11,7.10
2008,03,23,11,12,7.00
2008,03,23,11,13,6.90
2008,03,23,11,14,6.90
2008,03,23,11,15,6.80
2008,03,23,11,16,6.80
2008,03,23,11,17,6.70
2008,03,23,11,18,6.70
2008,03,23,11,19,6.80
2008,03,23,11,20,6.80
2008,03,23,11,21,6.80
2008,03,23,11,22,6.80
2008,03,23,11,23,6.90
2008,03,23,11,24,6.90
2008,03,23,11,25,7.00
2008,03,23,11,26,7.00
2008,03,23,11,27,6.90
2008,03,23,11,28,6.90
2008,03,23,11,29,6.80
2008,03,23,11,30,6.80
2008,03,23,11,31,6.80
2008,03,23,11,32,6.90
2008,03,23,11,33,6.90
2008,03,23,11,34,6.90
2008,03,23,11,35,6.90
2008,03,23,11,36,6.80
2008,03,23,11,37,6.80
2008,03,23,11,38,6.90
2008,03,23,11,39,6.90
2008,03,23,11,40,6.80
2008,03,23,11,41,6.90
2008,03,23,11,42,6.90
2008,03,23,11,43,7.00
2008,03,23,11,44,7.10
2008,03,23,11,45,7.00
2008,03,23,11,46,7.00
2008,03,23,11,47,7.10
2008,03,23,11,48,7.10
2008,03,23,11,49,7.10
2008,03,23,11,50,7.00
2008,03,23,11,51,6.90
2008,03,23,11,52,6.90
2008,03,23,11,53,6.90
2008,03,23,11,54,7.00
2008,03,23,11,55,7.10
2008,03,23,11,56,7.20
2008,03,23,11,57,7.20
2008,03,23,11,58,7.20
2008,03,23,11,59,7.20
2008,03,23,12,00,7.30
2008,03,23,12,01,7.30
2008,03,23,12,02,7.20
2008,03,23,12,03,7.20
2008,03,23,12,04,7.20
2008,03,23,12,05,7.20
2008,03,23,12,06,7.20
2008,03,23,12,07,7.20
2008,03,23,12,08,7.20
2008,03,23,12,09,7.20
2008,03,23,12,10,7.20
2008,03,23,12,11,7.20
2008,03,23,12,12,7.10
2008,03,23,12,13,7.00
2008,03,23,12,14,6.90
2008,03,23,12,15,7.00
2008,03,23,12,16,7.10
2008,03,23,12,17,7.20
2008,03,23,12,18,7.20
2008,03,23,12,19,7.20
2008,03,23,12,20,7.30
2008,03,23,12,21,7.30
2008,03,23,12,22,7.30
2008,03,23,12,23,7.30
2008,03,23,12,24,7.30
2008,03,23,12,25,7.20
2008,03,23,12,26,7.20
2008,03,23,12,27,7.20
2008,03,23,12,28,7.20
2008,03,23,12,29,7.30
2008,03,23,12,30,7.30
2008,03,23,12,31,7.30
2008,03,23,12,32,7.20
2008,03,23,12,33,7.20
2008,03,23,12,34,7.30
2008,03,23,12,35,7.40
2008,03,23,12,36,7.40
2008,03,23,12,37,7.40
2008,03,23,12,38,7.40
2008,03,23,12,39,7.50
2008,03,23,12,40,7.60
2008,03,23,12,41,7.70
2008,03,23,12,42,7.60
2008,03,23,12,43,7.60
2008,03,23,12,44,7.60
2008,03,23,12,45,7.60
2008,03,23,12,46,7.60
2008,03,23,12,47,7.70
2008,03,23,12,48,7.70
2008,03,23,12,49,7.80
2008,03,23,12,50,7.70
2008,03,23,12,51,7.60
2008,03,23,12,52,7.50
2008,03,23,12,53,7.40
2008,03,23,12,54,7.40
2008,03,23,12,55,7.50
2008,03,23,12,56,7.40
2008,03,23,12,57,7.40
2008,03,23,12,58,7.40
2008,03,23,12,59,7.40
2008,03,23,13,00,7.40
2008,03,23,13,01,7.30
2008,03,23,13,02,7.20
2008,03,23,13,03,7.20
2008,03,23,13,04,7.20
2008,03,23,13,05,7.10
2008,03,23,13,06,7.20
2008,03,23,13,07,7.20
2008,03,23,13,08,7.20
2008,03,23,13,09,7.20
2008,03,23,13,10,7.20
2008,03,23,13,11,7.20
2008,03,23,13,12,7.10
2008,03,23,13,13,7.10
2008,03,23,13,14,7.10
2008,03,23,13,15,7.10
2008,03,23,13,16,7.10
2008,03,23,13,17,7.00
2008,03,23,13,18,7.00
2008,03,23,13,19,7.00
2008,03,23,13,20,7.10
2008,03,23,13,21,7.10
2008,03,23,13,22,7.10
2008,03,23,13,23,7.10
2008,03,23,13,24,7.10
2008,03,23,13,25,7.00
2008,03,23,13,26,6.90
2008,03,23,13,27,6.80
2008,03,23,13,28,6.70
2008,03,23,13,29,6.70
2008,03,23,13,30,6.70
2008,03,23,13,31,6.80
2008,03,23,13,32,6.80
2008,03,23,13,33,6.80
2008,03,23,13,34,6.80
2008,03,23,13,35,6.70
2008,03,23,13,36,6.60
2008,03,23,13,37,6.60
2008,03,23,13,38,6.60
2008,03,23,13,39,6.60
2008,03,23,13,40,6.70
2008,03,23,13,41,6.70
2008,03,23,13,42,6.70
2008,03,23,13,43,6.80
2008,03,23,13,44,6.80
2008,03,23,13,45,6.80
2008,03,23,13,46,6.80
2008,03,23,13,47,6.70
2008,03,23,13,48,6.70
2008,03,23,13,49,6.70
2008,03,23,13,50,6.70
2008,03,23,13,51,6.70
2008,03,23,13,52,6.70
2008,03,23,13,53,6.70
2008,03,23,13,54,6.70
2008,03,23,13,55,6.70
2008,03,23,13,56,6.70
2008,03,23,13,57,6.70
2008,03,23,13,58,6.70
2008,03,23,13,59,6.70
2008,03,23,14,00,6.70
2008,03,23,14,01,6.70
2008,03,23,14,02,6.70
2008,03,23,14,03,6.70
2008,03,23,14,04,6.70
2008,03,23,14,05,6.80
2008,03,23,14,06,6.80
2008,03,23,14,07,6.80
2008,03,23,14,08,6.90
2008,03,23,14,09,6.90
2008,03,23,14,10,6.90
2008,03,23,14,11,6.90
2008,03,23,14,12,6.80
2008,03,23,14,13,6.60
2008,03,23,14,14,6.50
2008,03,23,14,15,6.40
2008,03,23,14,16,6.30
2008,03,23,14,17,6.30
2008,03,23,14,18,6.30
2008,03,23,14,19,6.30
2008,03,23,14,20,6.30
2008,03,23,14,21,6.40
2008,03,23,14,22,6.40
2008,03,23,14,23,6.40
2008,03,23,14,24,6.40
2008,03,23,14,25,6.40
2008,03,23,14,26,6.40
2008,03,23,14,27,6.50
2008,03,23,14,28,6.50
2008,03,23,14,29,6.60
2008,03,23,14,30,6.70
2008,03,23,14,31,6.80
2008,03,23,14,32,6.90
2008,03,23,14,33,7.00
2008,03,23,14,34,7.10
2008,03,23,14,35,7.10
2008,03,23,14,36,7.00
2008,03,23,14,37,7.00
2008,03,23,14,38,6.90
2008,03,23,14,39,6.90
2008,03,23,14,40,6.80
2008,03,23,14,41,6.80
2008,03,23,14,42,6.80
2008,03,23,14,43,6.80
2008,03,23,14,44,6.90
2008,03,23,14,45,6.90
2008,03,23,14,46,6.90
2008,03,23,14,47,6.90
2008,03,23,14,48,6.80
2008,03,23,14,49,6.80
2008,03,23,14,50,6.80
2008,03,23,14,51,6.80
2008,03,23,14,52,6.80
2008,03,23,14,53,6.90
2008,03,23,14,54,6.90
2008,03,23,14,55,6.90
2008,03,23,14,56,6.90
2008,03,23,14,57,6.90
2008,03,23,14,58,6.90
2008,03,23,14,59,7.00
2008,03,23,15,00,7.00
2008,03,23,15,01,7.00
2008,03,23,15,02,7.00
2008,03,23,15,03,7.00
2008,03,23,15,04,7.00
2008,03,23,15,05,6.90
2008,03,23,15,06,6.90
2008,03,23,15,07,6.90
2008,03,23,15,08,6.90
2008,03,23,15,09,6.80
2008,03,23,15,10,6.80
2008,03,23,15,11,6.80
2008,03,23,15,12,6.80
2008,03,23,15,13,6.80
2008,03,23,15,14,6.80
2008,03,23,15,15,6.80
2008,03,23,15,16,6.70
2008,03,23,15,17,6.70
2008,03,23,15,18,6.70
2008,03,23,15,19,6.70
2008,03,23,15,20,6.70
2008,03,23,15,21,6.70
2008,03,23,15,22,6.70
2008,03,23,15,23,6.70
2008,03,23,15,24,6.60
2008,03,23,15,25,6.60
2008,03,23,15,26,6.60
2008,03,23,15,27,6.60
2008,03,23,15,28,6.60
2008,03,23,15,29,6.60
2008,03,23,15,30,6.50
2008,03,23,15,31,6.40
2008,03,23,15,32,6.40
2008,03,23,15,33,6.30
2008,03,23,15,34,6.30
2008,03,23,15,35,6.20
2008,03,23,15,36,6.20
2008,03,23,15,37,6.20
2008,03,23,15,38,6.10
2008,03,23,15,39,6.10
2008,03,23,15,40,6.00
2008,03,23,15,41,5.90
2008,03,23,15,42,5.90
2008,03,23,15,43,5.80
2008,03,23,15,44,5.70
2008,03,23,15,45,5.70
2008,03,23,15,46,5.70
2008,03,23,15,47,5.60
2008,03,23,15,48,5.50
2008,03,23,15,49,5.50
2008,03,23,15,50,5.40
2008,03,23,15,51,5.40
2008,03,23,15,52,5.30
2008,03,23,15,53,5.30
2008,03,23,15,54,5.20
2008,03,23,15,55,5.20
2008,03,23,15,56,5.10
2008,03,23,15,57,5.10
2008,03,23,15,58,5.10
2008,03,23,15,59,5.00
2008,03,23,16,00,5.00
2008,03,23,16,01,4.90
2008,03,23,16,02,4.90
2008,03,23,16,03,4.80
2008,03,23,16,04,4.80
2008,03,23,16,05,4.80
2008,03,23,16,06,4.80
2008,03,23,16,07,4.70
2008,03,23,16,08,4.70
2008,03,23,16,09,4.60
2008,03,23,16,10,4.50
2008,03,23,16,11,4.40
2008,03,23,16,12,4.40
2008,03,23,16,13,4.30
2008,03,23,16,14,4.30
2008,03,23,16,15,4.30
2008,03,23,16,16,4.30
2008,03,23,16,17,4.30
2008,03,23,16,18,4.20
2008,03,23,16,19,4.30
2008,03,23,16,20,4.30
2008,03,23,16,21,4.40
2008,03,23,16,22,4.40
2008,03,23,16,23,4.50
2008,03,23,16,24,4.50
2008,03,23,16,25,4.50
2008,03,23,16,26,4.60
2008,03,23,16,27,4.60
2008,03,23,16,28,4.70
2008,03,23,16,29,4.70
2008,03,23,16,30,4.70
2008,03,23,16,31,4.70
2008,03,23,16,32,4.70
2008,03,23,16,33,4.80
2008,03,23,16,34,4.80
2008,03,23,16,35,4.90
2008,03,23,16,36,5.00
2008,03,23,16,37,5.10
2008,03,23,16,38,5.10
2008,03,23,16,39,5.10
2008,03,23,16,40,5.10
2008,03,23,16,41,5.00
2008,03,23,16,42,5.00
2008,03,23,16,43,4.90
2008,03,23,16,44,4.80
2008,03,23,16,45,4.80
2008,03,23,16,46,4.70
2008,03,23,16,47,4.70
2008,03,23,16,48,4.70
2008,03,23,16,49,4.70
2008,03,23,16,50,4.80
2008,03,23,16,51,4.80
2008,03,23,16,52,4.80
2008,03,23,16,53,4.80
2008,03,23,16,54,4.80
2008,03,23,16,55,4.80
2008,03,23,16,56,4.80
2008,03,23,16,57,4.80
2008,03,23,16,58,4.80
2008,03,23,16,59,4.70
2008,03,23,17,00,4.70
2008,03,23,17,01,4.70
2008,03,23,17,02,4.70
2008,03,23,17,03,4.70
2008,03,23,17,04,4.60
2008,03,23,17,05,4.50
2008,03,23,17,06,4.50
2008,03,23,17,07,4.40
2008,03,23,17,08,4.30
2008,03,23,17,09,4.30
2008,03,23,17,10,4.30
2008,03,23,17,11,4.30
2008,03,23,17,12,4.30
2008,03,23,17,13,4.30
2008,03,23,17,14,4.30
2008,03,23,17,15,4.30
2008,03,23,17,16,4.30
2008,03,23,17,17,4.30
2008,03,23,17,18,4.40
2008,03,23,17,19,4.40
2008,03,23,17,20,4.50
2008,03,23,17,21,4.40
2008,03,23,17,22,4.40
2008,03,23,17,23,4.40
2008,03,23,17,24,4.40
2008,03,23,17,25,4.40
2008,03,23,17,26,4.40
2008,03,23,17,27,4.30
2008,03,23,17,28,4.30
2008,03,23,17,29,4.20
2008,03,23,17,30,4.10
2008,03,23,17,31,4.00
2008,03,23,17,32,3.90
2008,03,23,17,33,3.80
2008,03,23,17,34,3.70
2008,03,23,17,35,3.60
2008,03,23,17,36,3.50
2008,03,23,17,37,3.40
2008,03,23,17,38,3.40
2008,03,23,17,39,3.30
2008,03,23,17,40,3.30
2008,03,23,17,41,3.30
2008,03,23,17,42,3.30
2008,03,23,17,43,3.30
2008,03,23,17,44,3.20
2008,03,23,17,45,3.30
2008,03,23,17,46,3.30
2008,03,23,17,47,3.30
2008,03,23,17,48,3.30
2008,03,23,17,49,3.30
2008,03,23,17,50,3.30
2008,03,23,17,51,3.30
2008,03,23,17,52,3.30
2008,03,23,17,53,3.20
2008,03,23,17,54,3.20
2008,03,23,17,55,3.20
2008,03,23,17,56,3.20
2008,03,23,17,57,3.20
2008,03,23,17,58,3.20
2008,03,23,17,59,3.20
2008,03,23,18,00,3.10
2008,03,23,18,01,3.00
2008,03,23,18,02,2.90
2008,03,23,18,03,2.80
2008,03,23,18,04,2.70
2008,03,23,18,05,2.70
2008,03,23,18,06,2.70